Location: Waco, TX
(31.5480°N, 97.1670°W)
Time: 04:09:14
(UTC-06:00)

ISS - All Passes

Search period start: 17 February 2019 00:00
Search period end: 27 February 2019 00:00
Orbit: 403 x 411 km, 51.6° (Epoch: 17 February)

Date Brightness Start Highest point End Pass type
(mag) Time Alt. Az. Time Alt. Az. Time Alt. Az.
17 Feb - 07:34:49 10° S 07:37:34 25° SE 07:40:20 10° ENE daylight
17 Feb - 09:11:30 10° W 09:14:04 21° NW 09:16:39 10° NNE daylight
17 Feb - 15:42:44 10° NNW 15:45:47 34° NE 15:48:50 10° ESE daylight
17 Feb - 17:20:09 10° W 17:22:04 15° SW 17:23:59 10° SSW daylight
18 Feb - 06:44:58 10° SSE 06:46:20 12° SE 06:47:41 10° E visible
18 Feb - 08:19:26 10° WSW 08:22:32 40° NW 08:25:39 10° NNE daylight
18 Feb - 14:51:49 10° NNW 14:54:14 19° NE 14:56:39 10° E daylight
18 Feb - 16:27:50 10° WNW 16:30:48 31° SW 16:33:45 10° SSE daylight
19 Feb - 07:27:50 10° SW 07:31:05 88° SE 07:34:21 10° NE daylight
19 Feb - 14:01:32 10° NNE 14:02:35 11° NNE 14:03:37 10° NE daylight
19 Feb - 15:36:10 10° NW 15:39:27 74° SW 15:42:43 10° SE daylight
20 Feb - 06:36:42 10° SSW 06:39:43 36° SE 06:42:45 10° ENE visible
20 Feb - 08:14:09 10° WNW 08:16:20 16° NW 08:18:31 10° N daylight
20 Feb - 14:44:48 10° NNW 14:48:00 48° NE 14:51:11 10° ESE daylight
20 Feb - 16:23:36 10° WSW 16:24:10 10° SW 16:24:43 10° SW daylight
21 Feb - 05:46:11 10° S 05:48:24 17° SE 05:50:36 10° E visible
21 Feb - 07:21:49 10° WSW 07:24:44 29° NW 07:27:39 10° NNE daylight
21 Feb - 13:53:42 10° NNW 13:56:27 24° NE 13:59:12 10° E daylight
21 Feb - 15:30:16 10° WNW 15:32:52 22° SW 15:35:30 10° S daylight
22 Feb - 06:29:59 10° SW 06:33:12 63° NW 06:36:27 10° NE visible
22 Feb - 13:02:59 10° N 13:04:48 14° NNE 13:06:37 10° ENE daylight
22 Feb - 14:38:20 10° NW 14:41:31 49° SW 14:44:42 10° SSE daylight
23 Feb - 05:38:34 10° SSW 05:41:45 54° SE 05:44:57 10° NE visible
23 Feb - 07:16:53 10° WNW 07:18:31 13° NNW 07:20:09 10° N daylight
23 Feb - 13:46:49 10° NW 13:50:04 70° NE 13:53:21 10° SE daylight
24 Feb - 04:47:42 10° S 04:50:23 24° SE 04:53:04 10° ENE visible
24 Feb - 06:24:11 10° W 06:26:50 22° NW 06:29:29 10° NNE visible
24 Feb - 12:55:33 10° NNW 12:58:32 32° NE 13:01:31 10° ESE daylight
24 Feb - 14:32:46 10° W 14:34:50 16° SW 14:36:55 10° SSW daylight
25 Feb - 03:58:01 10° SE 03:59:03 11° SE 04:00:05 10° ESE visible
25 Feb - 05:32:06 10° WSW 05:35:14 43° NW 05:38:23 10° NNE visible
25 Feb - 12:04:35 10° N 12:06:53 18° NE 12:09:12 10° E daylight
25 Feb - 13:40:29 10° WNW 13:43:28 33° SW 13:46:28 10° SSE daylight
26 Feb - 04:40:27 10° SW 04:43:42 81° SE 04:46:58 10° NE visible
26 Feb - 06:19:57 10° NW 06:20:36 10° NNW 06:21:14 10° NNW visible
26 Feb - 11:14:28 10° NNE 11:15:08 10° NNE 11:15:48 10° NE daylight
26 Feb - 12:48:45 10° NW 12:52:02 81° SW 12:55:17 10° SE daylight
